Regional Weather Roundup
Issued by NWS Cleveland, OH

Home | Current Version | Previous Version | Graphics & Text | Print | Product List | Glossary On
Versions: 1 2 3 4 5 6 7 8 9 10 11 12 13 14 15 16 17 18 19 20 21 22 23 24 25 26 27 28 29 30 31 32 33 34 35 36 37 38 39 40 41 42 43 44 45 46 47 48 49 50
018
ASUS41 KCLE 032302
RWRCLE
OHIO REGIONAL WEATHER ROUNDUP
NATIONAL WEATHER SERVICE CLEVELAND, OH
600 PM EST SAT DEC 03 2016

NOTE: "FAIR" INDICATES FEW OR NO CLOUDS BELOW 12,000 FEET WITH NO
SIGNIFICANT WEATHER AND/OR OBSTRUCTIONS TO VISIBILITY.

OHZ001>008-015>018-024>027-034-035-043-044-040000-
   NORTHWEST OHIO

CITY           SKY/WX    TMP DP  RH WIND       PRES   REMARKS
DEFIANCE       CLOUDY    37  27  67 CALM      30.31F
FINDLAY        CLOUDY    37  24  59 NW8       30.31S
TOLEDO EXPRESS CLOUDY    37  28  70 W5        30.30F
TOLEDO EXEC    CLOUDY    38  29  70 CALM      30.32S
LIMA           CLOUDY    35  26  69 NW5       30.30F
$$

OHZ009>014-019>023-028>033-038-089-040000-
   NORTHEAST OHIO

CITY           SKY/WX    TMP DP  RH WIND       PRES   REMARKS
CLE-HOPKINS    CLOUDY    39  28  64 W7        30.32F
CLE-LAKEFRONT  CLOUDY    39  28  64 SW12      30.30S
CUY CO. ARPT   CLOUDY    37  34  87 W12       30.30S
LORAIN-ELYRIA  CLOUDY    37  26  64 W6        30.31S
ASHTABULA      CLOUDY    36  35  96 W8        30.28S
AKRON-CANTON   CLOUDY    37  26  64 W3        30.29F
WOOSTER        CLOUDY    35  27  72 W3        30.30F
MANSFIELD      CLOUDY    35  25  66 W5        30.29S
YOUNGSTOWN     CLOUDY    36  30  79 W6        30.27F
$$

OHZ042-051>053-060>062-070>072-077>081-040000-
  SOUTHWEST OHIO

CITY           SKY/WX    TMP DP  RH WIND       PRES   REMARKS
CINC-COVINGTON CLOUDY    39  29  67 NW3       30.30S
CINC-LUNKEN    CLOUDY    41  32  70 CALM      30.33S
HAMILTON       CLOUDY    40  30  67 N3        30.32F
DAYTON         CLOUDY    37  27  67 CALM      30.31S
WRIGHT-PAT AFB CLOUDY    38  26  63 CALM      30.31S
DAYTON GENERAL CLOUDY    38  27  64 N3        30.30S
WILMINGTON     PTCLDY    36  28  73 CALM      30.29F
$$

OHZ036-037-039>041-045>050-054>059-063>069-073>076-082>088-040000-
  CENTRAL AND SOUTHEAST OHIO

CITY           SKY/WX    TMP DP  RH WIND       PRES   REMARKS
COLUMBUS       CLOUDY    38  31  76 W3        30.31S
OSU AIRPORT    CLOUDY    37  29  72 NW5       30.30S
BOLTON FIELD   CLOUDY    37  30  75 NW3       30.31S
RICKENBACK AFB CLOUDY    37  29  72 CALM      30.31S
NEWARK         CLOUDY    38  26  62 CALM      30.31S
MARION         CLOUDY    36  28  73 NW3       30.31S
LANCASTER      CLOUDY    38  30  73 CALM      30.31F
ZANESVILLE     CLOUDY    37  28  70 CALM      30.31F
NEW PHILLY     CLOUDY    37  27  67 VRB3      30.31F
$$




USA.gov is the U.S. government's official web portal to all federal, state and local government web resources and services.